Lid_Strength_Index
5 7 8 7 6 7 7 8 9 7 6 7 7 7 6 4 4 5 5 5 6 6 5 5 4 3 3 2 2 1 1 0 -0 -0 1 1 1 1 0 -0 -1 -1 -1 -1
6 8 6 6 6 7 7 9 8 7 6 7 7 7 6 5 5 5 5 5 5 4 5 5 4 3 3 3 2 2 1 -0 1 1 0 0 0 1 0 -0 -0 -0 -1 -1
8 7 6 7 7 8 8 8 8 8 7 6 7 9 7 6 5 5 5 4 4 4 4 4 4 3 3 3 3 3 2 -0 0 -0 0 -0 0 1 1 1 1 -0 -0 -0
7 5 7 7 8 7 9 6 7 8 9 11 7 12 8 7 6 6 5 5 4 3 3 3 3 3 3 4 3 2 2 1 -0 -0 0 -0 1 2 1 1 0 -0 -0 -0
8 7 7 8 8 6 8 6 7 8 9 9 9 11 9 6 7 6 5 4 4 3 3 3 2 2 3 3 3 2 1 1 0 -1 -0 1 1 1 1 0 -0 0 -0 -0
6 4 6 6 6 6 6 7 7 8 9 13 10 10 10 8 7 6 5 4 4 3 3 2 2 2 1 1 1 1 1 1 0 0 0 -0 1 1 1 1 1 1 0 0
7 7 6 5 7 6 7 9 12 13 13 14 9 10 9 7 6 5 5 4 4 3 3 3 2 2 2 1 1 1 0 0 -0 0 1 1 0 1 1 1 1 1 1 1
10 11 8 6 7 8 8 9 13 17 16 14 10 12 10 6 5 5 5 4 4 4 3 3 3 2 2 1 1 1 1 1 0 0 -0 -0 0 1 1 0 1 1 1 0
10 10 6 6 6 6 8 10 8 11 11 13 11 9 7 6 6 5 4 4 4 3 3 2 2 2 2 1 1 1 1 1 0 0 -0 0 0 0 1 0 0 1 0 0
7 11 7 7 6 6 7 6 11 11 15 16 13 12 12 8 7 6 5 5 4 3 3 2 2 2 1 1 1 0 0 1 0 0 0 0 0 0 0 0 1 0 0 0
6 8 9 7 9 9 9 9 9 9 11 16 17 13 7 7 6 6 5 5 4 3 3 3 2 2 1 1 1 1 1 1 1 0 0 0 0 0 0 0 0 1 0 0
6 8 11 10 7 6 7 8 9 15 13 11 12 12 6 6 5 5 5 4 3 3 3 3 2 2 2 1 1 1 1 1 0 0 0 0 0 0 0 1 0 0 1 0
6 10 14 11 9 7 9 8 8 8 9 12 16 14 6 5 5 5 5 4 4 3 3 3 2 2 2 2 1 1 1 1 0 1 1 0 1 1 1 1 0 0 1 1
5 9 11 14 11 12 13 10 9 9 13 12 11 10 9 8 7 5 4 4 4 3 3 3 3 2 2 2 1 1 1 1 1 1 2 1 1 1 1 0 1 0 1 1
6 11 10 9 9 9 10 10 9 10 10 12 10 10 8 6 6 5 4 4 4 4 3 3 3 2 2 2 2 1 1 1 1 1 1 1 1 1 1 1 1 1 1 1
6 11 9 11 9 9 10 9 9 9 9 9 9 10 6 5 4 5 5 4 4 4 4 3 3 2 2 2 2 2 1 1 1 1 1 1 1 1 1 1 1 1 1 1
8 10 11 14 10 10 12 9 9 9 7 8 11 8 6 6 6 5 5 4 4 4 3 3 3 3 2 2 2 2 1 1 1 1 1 1 1 2 1 1 1 1 1 1
9 10 11 14 12 19 9 6 7 8 7 7 7 7 6 6 5 5 4 4 4 4 4 3 3 2 2 1 1 1 1 1 1 2 2 1 2 2 2 2 2 2 1 2
6 9 13 15 14 11 9 7 8 10 10 7 9 6 7 6 5 5 3 3 3 4 3 3 2 2 2 2 1 2 2 2 2 3 3 2 2 2 2 2 2 2 2 2
9 9 13 13 18 18 12 8 6 6 13 7 7 7 7 6 10 7 4 3 3 3 2 2 2 2 2 2 1 2 2 3 4 3 3 3 3 2 2 2 2 2 2 2
13 13 15 14 16 12 9 7 6 14 13 7 6 6 6 8 6 4 3 3 3 3 2 2 2 3 2 2 2 4 4 5 4 3 2 2 2 3 2 2 3 2 2 2
11 14 15 14 16 17 7 7 12 8 6 6 5 6 6 6 5 4 4 4 3 3 2 2 3 3 3 3 3 4 5 4 3 3 2 2 2 2 2 2 3 2 2 3
13 10 12 11 11 6 5 6 5 5 6 5 6 5 5 5 5 4 5 4 3 3 3 3 3 4 4 4 4 6 6 4 4 4 4 2 2 2 3 4 2 3 3 3
8 6 10 9 8 7 6 4 4 4 5 4 4 4 5 6 5 5 4 4 3 3 4 4 4 5 5 5 5 5 5 4 5 5 6 5 5 5 3 2 3 3 3 4
8 7 9 9 7 6 5 5 4 4 4 4 4 5 5 5 6 6 5 5 5 5 5 5 6 6 5 5 6 5 5 5 6 6 5 4 3 3 3 4 3 3 2 3
7 10 11 11 7 9 9 5 4 5 5 6 6 6 6 7 7 7 7 7 6 6 6 6 6 6 6 6 6 5 5 5 4 4 5 4 4 4 4 6 8 15 12 12